Regional Weather Roundup
Issued by NWS Spokane, WA

Home | Current Version | Previous Version | Text Only | Print | Product List | Glossary On
Versions: 1 2 3 4 5 6 7 8 9 10 11 12 13 14 15 16 17 18 19 20 21 22 23 24 25 26 27 28 29 30 31 32 33 34 35 36 37 38 39 40 41 42 43 44 45 46 47 48 49 50
000
NZUS01 KOTX 280457
RWROTX
NATIONAL WEATHER SERVICE, SPOKANE WA
1000 PM PDT FRI MAY 27 2016

Note: "fair" indicated few or no clouds below 12,000 feet with no
significant weather and/or obstructions to visibility.

...NORTHEAST WASHINGTON AND NORTHERN IDAHO PANHANDLE...

CITY           SKY/WX    TMP DP  RH WIND       PRES   REMARKS
SPOKANE INTL   MOCLDY    52  31  44 S9        29.98R
SPOKANE DOWNTO PTCLDY    56  34  43 S9        29.98R
DEER PARK      CLOUDY    53  33  46 S7        29.97S

...SOUTHEAST WASHINGTON AND SOUTHERN IDAHO PANHANDLE...

CITY           SKY/WX    TMP DP  RH WIND       PRES   REMARKS
WALLA WALLA    MOCLDY    56  39  53 S8        30.04R
PULLMAN/MOSCOW MOCLDY    46  34  62 CALM      30.04R
LOWELL           N/A     52  45  77 CALM      30.05R

...COLUMBIA BASIN...

CITY           SKY/WX    TMP DP  RH WIND       PRES   REMARKS
EPHRATA        PTCLDY    56  28  34 NW15      29.97R
MOSES LAKE     CLEAR     53  29  39 NW6       30.00R
TRI CITIES     PTCLDY    53  38  56 NW6       30.03R
HERMISTON      MOCLDY    57  39  51 W14       30.04R
PENDLETON      MOCLDY    54  35  48 W23G32    30.04R

...EAST SLOPES CASCADES...

CITY           SKY/WX    TMP DP  RH WIND       PRES   REMARKS
THE DALLES     PTCLDY    57  38  48 W13       30.12R
YAKIMA         MOCLDY    56  35  45 NW13      30.05R
ELLENSBURG     MOCLDY    50  37  61 NW17      30.05R
OMAK           MOCLDY    56  30  37 NW7       29.95R

...SOUTHERN BRITISH COLUMBIA...

CITY           SKY/WX    TMP DP  RH WIND       PRES   REMARKS

...WESTERN MONTANA...

CITY           SKY/WX    TMP DP  RH WIND       PRES   REMARKS
MISSOULA       MOCLDY    44  36  73 W5        30.02R

...NEIGHBORING CITIES...

CITY           SKY/WX    TMP DP  RH WIND       PRES   REMARKS
SEATTLE        MOCLDY    53  45  74 SW6       30.14R



USA.gov is the U.S. government's official web portal to all federal, state and local government web resources and services.